Home > Weather > Wiesloch > Past weeks

Flag for Germany Past Weather in Wiesloch, Baden-Württemberg, Germany — Yesterday and Last 2 Weeks

Now
70 °F

Clear.


Feels Like: 70 °F
Forecast: 64 / 78 °F
Wind: 6 mph from Southwest

Location: Karlsruhe - Baden Wurttemberg

Current Time: Aug 28, 2016 at 7:07:41 AM

Latest Report: Aug 28, 2016 at 6:20 AM


Visibility: 10 mi

Pressure: 29.98 "Hg

Humidity: 78%

Dew Point: 63 °F

Location of WieslochLocation

Past Weather in Wiesloch — Graph

°F

Wiesloch Temperature Yesterday

Maximum temperature yesterday: 95 °F (at 4:20 PM)
Minimum temperature yesterday: 63 °F (at 6:20 AM)
Average temperature yesterday: 79 °F

High & Low Weather Summary for the Past Weeks

 TemperatureHumidityPressure
High95 °F (Aug 26, 4:20 PM)100% (Aug 13, 5:20 AM)30.39 "Hg (Aug 13, 5:20 AM)
Low54 °F (Aug 22, 4:50 AM)22% (Aug 27, 4:20 PM)29.80 "Hg (Aug 18, 6:20 AM)
Average71 °F71%30.07 "Hg
* Reported Aug 13 5:20 AM — Aug 28 5:50 AM, Wiesloch, Weather by CustomWeather, © 2016

Note: Actual official high and low records may vary slightly from our data, if they occured in-between our weather recording intervals... More about our weather records

Advertising

Wiesloch Weather History for the Previous 24 Hours

Scroll right to see more
 ConditionsComfort  
Time TempWeatherWind HumidityBarometerVisibility
5:50 AM
Sun, Aug 28
68 °FThundershowers. Clear.6 mph83%30.01 "HgN/A
5:20 AM68 °FThundershowers. Clear.5 mph83%29.98 "HgN/A
4:50 AM68 °FPassing clouds.7 mph88%29.98 "HgN/A
4:20 AM68 °FClear.5 mph88%29.98 "Hg10 mi
3:50 AM70 °FPassing clouds.6 mph83%29.98 "HgN/A
3:20 AM68 °FPassing clouds.7 mph88%29.98 "HgN/A
2:50 AM70 °FClear.No wind83%29.98 "Hg10 mi
2:20 AM70 °FClear.2 mph83%30.01 "Hg10 mi
1:50 AM70 °FClear.6 mph83%30.01 "Hg10 mi
1:20 AM68 °FClear.6 mph88%30.01 "Hg10 mi
12:50 AM70 °FPassing clouds.5 mph83%29.98 "HgN/A
11:50 PM
Sat, Aug 27
70 °FClear.3 mph88%29.98 "Hg10 mi
11:20 PM70 °FClear.1 mph88%29.98 "Hg10 mi
10:50 PM72 °FClear.2 mph83%29.98 "Hg10 mi
10:20 PM73 °FClear.1 mph78%29.98 "Hg10 mi
9:50 PM75 °FClear.5 mph74%29.98 "Hg10 mi
9:20 PM75 °FClear.2 mph78%29.98 "Hg10 mi
8:50 PM77 °FSunny.3 mph69%29.98 "Hg10 mi
8:20 PM81 °FSunny.2 mph66%29.95 "Hg10 mi
7:50 PM82 °FSunny.1 mph58%29.98 "Hg10 mi
7:20 PM82 °FSunny.3 mph58%29.98 "Hg10 mi
6:50 PM91 °FSunny.2 mph41%29.98 "Hg10 mi
6:20 PM93 °FPassing clouds.7 mph30%29.98 "HgN/A
5:50 PM93 °FPassing clouds.7 mph30%29.98 "HgN/A
5:20 PM93 °FPassing clouds.7 mph28%29.98 "HgN/A
4:50 PM95 °FPassing clouds.6 mph25%30.01 "HgN/A
4:20 PM95 °FPassing clouds.7 mph22%30.01 "HgN/A
3:50 PM93 °FPassing clouds.9 mph28%30.01 "HgN/A
3:20 PM91 °FPassing clouds.7 mph32%30.01 "HgN/A
2:50 PM91 °FPassing clouds.7 mph34%30.04 "HgN/A
2:20 PM88 °FPassing clouds.5 mph49%30.04 "HgN/A
1:50 PM88 °FPassing clouds.6 mph49%30.04 "HgN/A
1:20 PM86 °FPassing clouds.6 mph49%30.04 "HgN/A
12:50 PM84 °FPassing clouds.6 mph51%30.07 "HgN/A
12:20 PM84 °FPassing clouds.5 mph55%30.07 "HgN/A
11:50 AM82 °FSunny.3 mph58%30.07 "Hg10 mi
11:20 AM81 °FSunny.3 mph66%30.07 "Hg10 mi
10:50 AM79 °FSunny.2 mph70%30.07 "Hg10 mi
10:20 AM77 °FSunny.3 mph69%30.07 "Hg10 mi
9:50 AM75 °FSunny.2 mph83%30.07 "Hg10 mi
9:20 AM75 °FSunny.No wind78%30.07 "Hg10 mi
8:50 AM75 °FSunny.No wind78%30.07 "Hg10 mi
8:20 AM68 °FSunny.2 mph94%30.07 "Hg10 mi
7:50 AM64 °FFog.2 mph100%30.07 "HgN/A
7:20 AM63 °FFog.2 mph100%30.07 "HgN/A
Weather by CustomWeather, © 2016

See weather overviewHow to use our weather pages